SCP
0 0 0 0 0 0 0 0 0 0 0 0 0 0 0 0 0 0 0 0 0 0 0 0 0 0 0 0 0 0 0 0 0 -0 0 0 -0 0 0 0 0 0 0 0
0 0 0 0 0 0 0 0 0 0 0 0 0 -0 -0 -0 0 0 0 0 0 0 0 0 0 0 0 0 0 0 0 0 0 0 0 0 0 -0 -0 0 0 -0 0 0
0 0 0 0 0 0 0 0 0 -0 0 0 0 0 0 0 0 0 0 0 0 0 0 0 0 0 0 0 0 0 0 0 0 0 0 0 0 0 0 0 0 0 -0 0
-0 -0 -0 0 0 0 0 -0 0 0 0 0 0 0 0 0 0 0 0 0 0 0 0 0 0 0 0 0 0 0 0 0 0 0 0 0 0 0 0 0 0 -0 -0 -0
0 0 0 0 0 0 0 0 0 0 0 0 0 0 0 0 0 0 0 0 0 0 0 0 0 0 0 0 0 0 0 0 0 0 0 0 0 0 0 0 0 0 0 -0
0 0 0 0 0 0 0 0 0 0 0 0 0 0 0 0 0 0 0 0 0 0 0 0 0 0 0 0 0 0 0 0 0 0 0 0 0 0 0 0 0 0 0 0
0 0 0 0 0 0 0 0 0 0 0 0 0 0 0 0 0 0 0 0 0 0 0 0 0 0 0 0 0 0 0 0 0 0 0 0 0 0 0 0 0 0 0 0
0 0 0 0 0 0 0 0 0 0 0 0 0 0 0 0 0 0 0 0 0 0 0 0 0 0 0 0 0 0 0 0 0 0 0 0 0 0 0 0 0 0 0 0
0 0 0 0 0 0 0 0 0 0 0 0 0 0 0 0 0 0 0 0 0 0 0 0 0 0 0 0 0 0 0 0 0 0 0 0 0 0 0 0 0 0 0 0
0 0 0 0 0 0 0 0 0 0 0 -0 0 0 0 0 0 0 0 0 0 0 0 0 0 0 0 0 0 0 0 0 0 0 0 0 0 0 0 0 0 0 0 0
0 0 0 -0 -0 0 0 0 0 0 0 -0 0 0 0 0 0 0 0 0 0 0 0 0 0 0 0 0 0 0 0 0 0 1 0 0 0 0 0 2 1 0 0 0
0 0 0 -0 -0 -0 0 0 0 0 0 0 0 0 0 0 0 0 0 0 0 0 0 0 0 0 0 0 0 0 0 0 0 0 0 0 0 0 0 0 0 1 1 0
0 0 0 -0 -0 -0 0 0 0 0 0 0 0 0 0 0 -0 0 0 0 0 0 0 0 0 0 0 0 0 0 0 0 0 0 0 0 0 0 0 0 0 1 0 1
0 0 -0 -0 -0 -0 0 0 0 0 0 0 0 0 0 0 0 0 0 0 0 0 0 0 0 0 0 0 0 0 0 -0 0 0 0 0 0 0 0 0 0 1 1 0
0 0 -0 -0 -0 -0 0 0 0 0 0 0 0 0 0 0 0 0 0 0 0 0 0 0 0 0 0 0 0 0 0 0 0 0 0 0 0 0 0 0 0 0 0 0
0 0 0 0 0 0 0 0 0 0 0 0 0 0 -0 0 0 0 0 0 0 0 0 0 0 0 0 0 0 0 0 0 0 0 0 0 0 0 0 0 0 0 1 3
0 0 0 0 0 0 0 0 0 0 0 0 0 0 0 0 0 0 0 0 0 0 0 0 0 0 0 0 -0 0 0 0 -0 -0 0 0 0 0 0 0 0 0 1 9
0 0 0 0 0 0 0 0 0 0 0 0 0 0 0 0 0 0 0 0 0 0 0 0 0 0 0 0 0 0 0 0 0 0 0 0 0 0 0 0 0 0 0 0
0 0 0 0 0 0 0 0 0 0 0 0 0 0 0 0 0 0 0 0 0 0 0 0 0 0 0 0 0 -0 0 0 0 -0 0 0 0 0 0 0 0 0 0 0
0 0 0 0 0 0 0 0 0 0 0 0 0 0 0 0 0 0 0 0 0 0 0 0 0 0 0 0 -0 -0 0 0 0 0 0 0 0 0 0 0 0 -0 1 0
0 0 0 0 0 0 0 0 0 0 0 0 0 0 0 0 0 0 0 0 0 0 0 0 0 0 0 0 0 0 0 0 0 0 0 0 0 0 0 0 0 0 0 0
0 0 0 0 0 0 0 0 0 0 0 0 0 0 0 0 0 0 0 0 0 0 0 0 0 0 0 0 0 0 0 0 0 0 0 0 0 0 0 0 0 0 1 0
0 0 0 0 0 0 0 0 0 0 0 0 0 0 0 0 0 0 0 0 0 0 0 0 0 0 0 0 0 -0 -0 0 0 0 0 0 0 0 0 0 0 0 0 0
0 0 0 0 0 0 0 0 0 0 0 0 0 0 0 0 0 0 0 0 0 0 0 0 0 0 0 -0 -0 -0 -0 -0 0 0 0 0 0 0 0 0 0 0 -0 0
0 0 0 0 0 -0 0 0 0 0 0 0 0 0 0 0 0 0 -0 0 0 0 -0 -0 -0 -0 0 0 -0 -0 -0 -0 -0 -0 -0 -0 0 0 0 0 0 0 0 0
0 0 0 0 0 0 0 0 0 0 0 0 0 0 0 0 0 0 0 0 0 0 0 0 -0 -0 -0 -0 0 -0 -0 -0 0 -0 -0 0 0 0 -0 0 0 -0 0 0
0 0 0 0 0 0 0 0 0 0 0 0 0 0 0 0 0 0 -0 -0 0 0 0 0 0 0 0 -0 -0 -0 -0 -0 -0 0 0 -0 -0 0 -0 0 -0 -0 0 0
Wind_Speed_500mb
47 46 46 47 51 46 29 14 13 14 11 19 24 25 40 49 48 38 17 27 36 40 39 34 39 41 38 18 28 35 34 20 31 33 23 26 35 34 36 24 28 27 23 8
44 42 41 42 43 47 47 19 36 32 13 16 23 37 43 47 37 25 28 37 31 36 36 40 38 39 36 46 30 25 28 19 30 33 31 33 32 39 37 36 33 35 23 21
45 45 40 35 32 30 30 17 9 17 30 27 29 33 34 38 40 31 28 40 37 33 34 34 40 41 39 38 38 19 15 32 28 30 35 30 39 32 35 34 26 31 34 18
46 49 51 41 25 20 22 11 12 27 17 27 34 36 29 30 33 39 31 29 30 36 34 34 36 36 39 39 27 21 23 37 37 41 45 44 34 35 44 39 41 39 31 37
42 46 49 46 38 16 10 15 32 33 44 44 37 30 33 37 40 38 35 40 31 31 36 34 35 41 36 34 28 29 30 33 36 46 45 44 45 41 32 37 39 42 41 40
39 43 47 48 38 20 10 21 27 33 28 33 28 27 35 37 35 38 41 38 34 32 35 29 32 43 49 31 32 36 35 29 32 42 42 43 49 46 42 40 31 35 35 33
42 45 49 48 43 28 19 26 28 26 23 27 30 35 36 37 35 31 37 38 15 23 34 41 39 42 49 48 35 39 30 25 27 32 36 57 38 41 47 46 44 36 34 27
42 46 48 47 46 33 26 18 20 29 24 37 37 40 32 42 35 27 37 42 38 26 31 25 26 27 33 43 41 37 39 30 23 26 35 39 41 44 44 40 37 38 35 31
41 47 50 47 48 32 24 15 16 15 24 21 33 32 35 26 26 28 33 35 34 37 16 18 32 28 36 35 41 45 44 38 26 29 40 50 33 40 53 37 32 31 34 31
43 46 51 48 43 29 17 9 16 13 17 46 35 27 28 35 29 18 34 26 15 24 13 22 29 35 38 42 43 39 31 30 32 32 37 46 40 48 51 23 18 35 33 29
42 43 47 49 39 25 17 15 19 15 12 50 43 39 33 34 28 16 24 19 12 19 20 20 27 32 34 38 38 39 36 5 26 34 37 50 49 48 29 7 48 45 26 36
38 38 40 47 43 28 16 16 9 24 25 38 45 42 38 38 33 35 34 23 13 6 8 7 12 22 27 33 29 16 18 19 16 16 19 34 39 33 21 13 15 37 24 13
35 33 34 39 42 27 12 11 9 12 25 43 30 29 23 28 40 34 36 37 24 6 7 10 6 12 19 24 24 5 18 22 10 6 25 48 46 32 34 37 27 16 30 8
32 29 29 30 34 28 13 7 7 11 12 10 17 16 27 26 26 34 41 46 33 18 16 16 8 7 23 19 28 28 26 10 7 16 28 49 51 29 20 43 56 21 24 33
33 28 28 29 25 27 20 10 10 12 13 9 31 56 24 22 32 30 31 33 42 32 16 11 13 26 23 28 29 33 40 21 19 15 18 15 29 35 43 33 59 56 20 27
35 25 26 31 26 22 15 9 3 7 18 10 8 25 18 14 21 19 31 31 29 30 20 20 27 48 30 9 24 39 48 37 17 11 2 17 30 36 35 42 50 49 44 26
28 23 27 28 20 20 14 8 12 23 7 6 11 14 4 14 8 19 27 30 32 21 18 18 38 42 28 18 29 47 52 44 16 14 16 23 26 25 46 43 47 60 61 69
21 24 28 26 21 21 19 23 18 11 7 6 6 10 11 17 9 6 7 9 11 10 12 16 19 23 13 12 32 45 45 55 42 30 32 38 43 47 43 33 23 21 60 62
20 26 25 15 6 9 9 15 12 11 11 6 8 6 8 18 12 9 6 4 3 8 5 9 6 10 13 18 35 40 49 40 15 23 31 37 53 63 42 56 56 48 41 45
16 14 4 8 10 14 22 3 6 8 9 10 9 11 8 5 5 6 9 4 3 5 7 10 7 20 53 52 51 46 32 21 29 30 40 36 45 34 40 15 67 93 51 52
6 6 4 2 15 7 7 8 11 12 8 13 16 26 17 13 7 5 9 1 2 5 2 5 3 7 17 25 40 43 33 27 30 33 43 40 39 17 19 17 20 49 54 45
18 22 26 11 7 9 9 9 11 11 7 13 15 14 13 7 12 6 6 5 3 8 7 4 5 6 35 26 28 28 29 29 32 32 20 15 19 7 14 15 29 29 54 52
11 5 6 9 13 8 10 5 1 6 7 15 19 11 9 11 12 8 5 9 8 3 3 4 4 27 33 34 40 41 30 23 21 11 20 17 11 29 41 56 38 29 38 47
7 9 9 10 8 9 12 8 14 23 28 27 30 16 14 10 10 7 8 8 6 4 2 4 4 29 28 30 41 42 24 10 16 13 19 18 25 24 54 61 43 37 38 42
10 11 7 10 16 31 21 11 17 19 24 34 31 22 3 7 7 6 7 5 2 2 3 3 21 32 24 27 35 34 22 21 14 32 43 38 49 35 42 51 44 42 41 41
11 14 19 20 27 12 21 17 20 24 29 29 19 8 6 7 2 1 4 11 4 3 6 16 23 27 21 25 28 30 23 17 28 44 47 46 48 44 51 47 45 45 42 41
10 15 26 30 13 15 19 20 14 21 24 9 9 6 5 8 5 5 3 2 9 13 11 12 19 28 18 19 24 29 17 10 29 27 36 44 34 41 41 42 39 35 36 35
Wind_Direction_500mb
340 342 342 343 344 348 345 306 275 163 218 239 238 247 252 263 279 289 264 268 283 287 289 270 262 230 240 269 203 238 216 236 240 255 214 206 256 233 230 241 241 273 274 270
337 340 341 343 346 351 354 312 286 276 220 260 257 254 257 256 268 284 278 270 253 274 273 283 282 274 264 243 204 230 233 220 249 247 233 205 218 239 244 229 242 261 255 252
343 342 344 342 341 344 344 307 300 218 212 250 269 283 289 294 290 241 266 281 287 275 267 269 270 273 276 274 253 154 279 244 230 241 234 236 199 222 245 252 245 228 242 197
2 358 356 355 342 337 340 263 299 340 301 305 327 317 309 296 290 288 277 250 265 277 276 273 271 266 267 268 239 179 226 253 254 256 264 271 273 219 209 227 249 257 250 240
2 1 357 359 349 336 312 300 334 321 301 300 298 285 275 276 281 287 280 281 275 251 275 265 290 281 269 260 251 208 213 245 252 259 261 258 264 262 259 225 219 243 251 264
2 360 359 358 357 341 311 316 309 298 279 287 286 278 283 282 283 278 274 278 290 306 336 329 312 306 305 296 293 298 216 229 240 250 250 262 258 252 256 253 238 225 235 239
2 358 355 352 352 340 296 296 308 294 284 287 282 289 291 287 283 281 304 306 299 279 332 313 304 290 282 273 274 284 282 272 223 250 247 243 255 250 250 252 251 244 247 256
0 357 354 350 344 328 311 295 283 282 278 275 281 279 285 290 288 291 293 282 285 295 306 295 279 267 261 267 268 265 274 273 265 251 244 258 251 243 255 259 258 251 235 245
357 355 353 346 341 327 314 296 257 277 280 247 308 302 290 299 288 280 248 267 270 279 262 281 268 258 271 263 260 271 259 260 259 261 254 252 253 250 266 273 260 256 225 232
354 354 353 349 344 339 314 282 245 250 269 273 285 289 327 319 323 305 318 349 302 273 279 251 250 259 257 256 256 263 268 246 253 245 255 259 262 277 285 298 302 293 231 251
346 348 352 353 347 340 327 301 239 223 267 272 290 302 295 303 317 318 309 320 258 263 254 253 256 262 254 258 259 259 243 253 270 236 254 249 246 257 266 58 354 329 259 248
336 338 346 353 353 343 331 299 275 236 258 268 292 289 283 282 283 287 288 275 294 316 303 298 299 270 275 269 261 252 261 267 270 242 248 318 315 353 313 169 320 324 325 322
327 331 341 351 357 355 333 314 289 269 276 298 280 284 282 269 259 255 255 266 278 274 292 308 281 272 295 284 290 70 305 334 214 286 242 261 295 341 291 296 214 283 305 228
321 320 326 341 355 5 343 296 284 262 280 288 299 318 294 285 275 253 249 259 264 257 263 284 266 258 282 283 301 300 300 122 263 266 274 278 278 286 261 306 325 218 218 300
316 307 308 317 333 350 354 297 266 252 249 288 294 303 316 277 255 254 247 264 262 268 247 242 258 273 284 269 271 268 278 273 202 228 289 279 285 329 312 314 280 313 237 245
312 298 301 312 300 323 321 315 4 315 259 298 302 309 322 291 255 271 246 252 266 251 289 258 256 250 272 269 265 281 295 277 348 117 164 317 318 330 317 309 296 270 284 182
302 295 307 312 296 283 268 307 315 320 253 270 292 284 313 355 276 264 260 253 243 252 250 245 255 261 229 257 266 275 279 282 302 315 291 284 270 283 314 305 294 265 278 161
290 301 309 303 288 279 268 264 276 283 241 255 278 279 300 9 315 305 305 298 284 242 250 264 257 260 244 250 257 267 270 279 266 256 269 255 266 271 258 286 291 267 238 118
296 306 305 291 248 241 228 270 276 207 214 270 245 282 302 341 349 326 309 218 259 278 268 247 241 227 230 247 253 264 258 277 202 241 266 273 264 264 258 243 215 222 225 158
299 303 268 231 222 240 303 246 211 214 218 227 256 238 253 248 280 300 321 231 241 261 238 263 231 257 256 259 265 271 264 279 275 274 270 270 282 288 284 253 206 209 176 180
299 267 302 261 316 260 232 226 205 180 227 218 238 241 240 218 210 248 214 228 228 259 280 261 268 289 298 306 289 271 289 263 265 274 279 271 276 296 296 260 87 188 170 162
293 285 282 265 243 233 241 224 188 204 242 196 240 259 237 155 198 234 212 260 184 257 153 253 260 335 349 354 342 322 316 287 272 265 292 315 304 266 215 228 156 141 121 138
301 292 236 209 211 239 239 245 355 273 231 236 258 257 171 157 192 208 238 226 224 132 234 251 337 333 328 333 336 329 306 256 260 292 311 280 183 154 139 134 135 142 137 143
250 237 238 229 213 238 237 297 332 338 331 327 311 265 187 197 186 211 253 211 164 217 268 275 284 314 318 330 321 324 308 248 273 265 3 306 200 167 163 149 161 158 158 159
255 252 249 234 257 278 321 335 317 341 333 325 309 303 197 206 237 191 285 161 279 92 220 284 322 332 346 331 326 329 341 198 113 101 70 127 134 137 131 141 153 158 157 161
239 239 250 285 273 280 283 341 341 343 333 346 311 322 289 235 257 57 301 334 356 46 23 353 342 343 337 340 343 336 343 86 104 107 116 117 99 116 133 137 147 153 157 164
233 245 252 261 295 330 298 332 357 334 322 324 322 287 307 303 38 27 263 51 8 24 43 3 4 359 3 357 5 8 4 73 142 119 123 127 147 140 139 140 145 151 158 161
Wind_Speed_850mb
47 46 46 47 51 46 29 14 13 14 11 19 24 25 40 49 48 38 17 27 36 40 39 34 39 41 38 18 28 35 34 20 31 33 23 26 35 34 36 24 28 27 23 8
44 42 41 42 43 47 47 19 36 32 13 16 23 37 43 47 37 25 28 37 31 36 36 40 38 39 36 46 30 25 28 19 30 33 31 33 32 39 37 36 33 35 23 21
45 45 40 35 32 30 30 17 9 17 30 27 29 33 34 38 40 31 28 40 37 33 34 34 40 41 39 38 38 19 15 32 28 30 35 30 39 32 35 34 26 31 34 18
46 49 51 41 25 20 22 11 12 27 17 27 34 36 29 30 33 39 31 29 30 36 34 34 36 36 39 39 27 21 23 37 37 41 45 44 34 35 44 39 41 39 31 37
42 46 49 46 38 16 10 15 32 33 44 44 37 30 33 37 40 38 35 40 31 31 36 34 35 41 36 34 28 29 30 33 36 46 45 44 45 41 32 37 39 42 41 40
39 43 47 48 38 20 10 21 27 33 28 33 28 27 35 37 35 38 41 38 34 32 35 29 32 43 49 31 32 36 35 29 32 42 42 43 49 46 42 40 31 35 35 33
42 45 49 48 43 28 19 26 28 26 23 27 30 35 36 37 35 31 37 38 15 23 34 41 39 42 49 48 35 39 30 25 27 32 36 57 38 41 47 46 44 36 34 27
42 46 48 47 46 33 26 18 20 29 24 37 37 40 32 42 35 27 37 42 38 26 31 25 26 27 33 43 41 37 39 30 23 26 35 39 41 44 44 40 37 38 35 31
41 47 50 47 48 32 24 15 16 15 24 21 33 32 35 26 26 28 33 35 34 37 16 18 32 28 36 35 41 45 44 38 26 29 40 50 33 40 53 37 32 31 34 31
43 46 51 48 43 29 17 9 16 13 17 46 35 27 28 35 29 18 34 26 15 24 13 22 29 35 38 42 43 39 31 30 32 32 37 46 40 48 51 23 18 35 33 29
42 43 47 49 39 25 17 15 19 15 12 50 43 39 33 34 28 16 24 19 12 19 20 20 27 32 34 38 38 39 36 5 26 34 37 50 49 48 29 7 48 45 26 36
38 38 40 47 43 28 16 16 9 24 25 38 45 42 38 38 33 35 34 23 13 6 8 7 12 22 27 33 29 16 18 19 16 16 19 34 39 33 21 13 15 37 24 13
35 33 34 39 42 27 12 11 9 12 25 43 30 29 23 28 40 34 36 37 24 6 7 10 6 12 19 24 24 5 18 22 10 6 25 48 46 32 34 37 27 16 30 8
32 29 29 30 34 28 13 7 7 11 12 10 17 16 27 26 26 34 41 46 33 18 16 16 8 7 23 19 28 28 26 10 7 16 28 49 51 29 20 43 56 21 24 33
33 28 28 29 25 27 20 10 10 12 13 9 31 56 24 22 32 30 31 33 42 32 16 11 13 26 23 28 29 33 40 21 19 15 18 15 29 35 43 33 59 56 20 27
35 25 26 31 26 22 15 9 3 7 18 10 8 25 18 14 21 19 31 31 29 30 20 20 27 48 30 9 24 39 48 37 17 11 2 17 30 36 35 42 50 49 44 26
28 23 27 28 20 20 14 8 12 23 7 6 11 14 4 14 8 19 27 30 32 21 18 18 38 42 28 18 29 47 52 44 16 14 16 23 26 25 46 43 47 60 61 69
21 24 28 26 21 21 19 23 18 11 7 6 6 10 11 17 9 6 7 9 11 10 12 16 19 23 13 12 32 45 45 55 42 30 32 38 43 47 43 33 23 21 60 62
20 26 25 15 6 9 9 15 12 11 11 6 8 6 8 18 12 9 6 4 3 8 5 9 6 10 13 18 35 40 49 40 15 23 31 37 53 63 42 56 56 48 41 45
16 14 4 8 10 14 22 3 6 8 9 10 9 11 8 5 5 6 9 4 3 5 7 10 7 20 53 52 51 46 32 21 29 30 40 36 45 34 40 15 67 93 51 52
6 6 4 2 15 7 7 8 11 12 8 13 16 26 17 13 7 5 9 1 2 5 2 5 3 7 17 25 40 43 33 27 30 33 43 40 39 17 19 17 20 49 54 45
18 22 26 11 7 9 9 9 11 11 7 13 15 14 13 7 12 6 6 5 3 8 7 4 5 6 35 26 28 28 29 29 32 32 20 15 19 7 14 15 29 29 54 52
11 5 6 9 13 8 10 5 1 6 7 15 19 11 9 11 12 8 5 9 8 3 3 4 4 27 33 34 40 41 30 23 21 11 20 17 11 29 41 56 38 29 38 47
7 9 9 10 8 9 12 8 14 23 28 27 30 16 14 10 10 7 8 8 6 4 2 4 4 29 28 30 41 42 24 10 16 13 19 18 25 24 54 61 43 37 38 42
10 11 7 10 16 31 21 11 17 19 24 34 31 22 3 7 7 6 7 5 2 2 3 3 21 32 24 27 35 34 22 21 14 32 43 38 49 35 42 51 44 42 41 41
11 14 19 20 27 12 21 17 20 24 29 29 19 8 6 7 2 1 4 11 4 3 6 16 23 27 21 25 28 30 23 17 28 44 47 46 48 44 51 47 45 45 42 41
10 15 26 30 13 15 19 20 14 21 24 9 9 6 5 8 5 5 3 2 9 13 11 12 19 28 18 19 24 29 17 10 29 27 36 44 34 41 41 42 39 35 36 35
Wind_Direction_850mb
340 342 342 343 344 348 345 306 275 163 218 239 238 247 252 263 279 289 264 268 283 287 289 270 262 230 240 269 203 238 216 236 240 255 214 206 256 233 230 241 241 273 274 270
337 340 341 343 346 351 354 312 286 276 220 260 257 254 257 256 268 284 278 270 253 274 273 283 282 274 264 243 204 230 233 220 249 247 233 205 218 239 244 229 242 261 255 252
343 342 344 342 341 344 344 307 300 218 212 250 269 283 289 294 290 241 266 281 287 275 267 269 270 273 276 274 253 154 279 244 230 241 234 236 199 222 245 252 245 228 242 197
2 358 356 355 342 337 340 263 299 340 301 305 327 317 309 296 290 288 277 250 265 277 276 273 271 266 267 268 239 179 226 253 254 256 264 271 273 219 209 227 249 257 250 240
2 1 357 359 349 336 312 300 334 321 301 300 298 285 275 276 281 287 280 281 275 251 275 265 290 281 269 260 251 208 213 245 252 259 261 258 264 262 259 225 219 243 251 264
2 360 359 358 357 341 311 316 309 298 279 287 286 278 283 282 283 278 274 278 290 306 336 329 312 306 305 296 293 298 216 229 240 250 250 262 258 252 256 253 238 225 235 239
2 358 355 352 352 340 296 296 308 294 284 287 282 289 291 287 283 281 304 306 299 279 332 313 304 290 282 273 274 284 282 272 223 250 247 243 255 250 250 252 251 244 247 256
0 357 354 350 344 328 311 295 283 282 278 275 281 279 285 290 288 291 293 282 285 295 306 295 279 267 261 267 268 265 274 273 265 251 244 258 251 243 255 259 258 251 235 245
357 355 353 346 341 327 314 296 257 277 280 247 308 302 290 299 288 280 248 267 270 279 262 281 268 258 271 263 260 271 259 260 259 261 254 252 253 250 266 273 260 256 225 232
354 354 353 349 344 339 314 282 245 250 269 273 285 289 327 319 323 305 318 349 302 273 279 251 250 259 257 256 256 263 268 246 253 245 255 259 262 277 285 298 302 293 231 251
346 348 352 353 347 340 327 301 239 223 267 272 290 302 295 303 317 318 309 320 258 263 254 253 256 262 254 258 259 259 243 253 270 236 254 249 246 257 266 58 354 329 259 248
336 338 346 353 353 343 331 299 275 236 258 268 292 289 283 282 283 287 288 275 294 316 303 298 299 270 275 269 261 252 261 267 270 242 248 318 315 353 313 169 320 324 325 322
327 331 341 351 357 355 333 314 289 269 276 298 280 284 282 269 259 255 255 266 278 274 292 308 281 272 295 284 290 70 305 334 214 286 242 261 295 341 291 296 214 283 305 228
321 320 326 341 355 5 343 296 284 262 280 288 299 318 294 285 275 253 249 259 264 257 263 284 266 258 282 283 301 300 300 122 263 266 274 278 278 286 261 306 325 218 218 300
316 307 308 317 333 350 354 297 266 252 249 288 294 303 316 277 255 254 247 264 262 268 247 242 258 273 284 269 271 268 278 273 202 228 289 279 285 329 312 314 280 313 237 245
312 298 301 312 300 323 321 315 4 315 259 298 302 309 322 291 255 271 246 252 266 251 289 258 256 250 272 269 265 281 295 277 348 117 164 317 318 330 317 309 296 270 284 182
302 295 307 312 296 283 268 307 315 320 253 270 292 284 313 355 276 264 260 253 243 252 250 245 255 261 229 257 266 275 279 282 302 315 291 284 270 283 314 305 294 265 278 161
290 301 309 303 288 279 268 264 276 283 241 255 278 279 300 9 315 305 305 298 284 242 250 264 257 260 244 250 257 267 270 279 266 256 269 255 266 271 258 286 291 267 238 118
296 306 305 291 248 241 228 270 276 207 214 270 245 282 302 341 349 326 309 218 259 278 268 247 241 227 230 247 253 264 258 277 202 241 266 273 264 264 258 243 215 222 225 158
299 303 268 231 222 240 303 246 211 214 218 227 256 238 253 248 280 300 321 231 241 261 238 263 231 257 256 259 265 271 264 279 275 274 270 270 282 288 284 253 206 209 176 180
299 267 302 261 316 260 232 226 205 180 227 218 238 241 240 218 210 248 214 228 228 259 280 261 268 289 298 306 289 271 289 263 265 274 279 271 276 296 296 260 87 188 170 162
293 285 282 265 243 233 241 224 188 204 242 196 240 259 237 155 198 234 212 260 184 257 153 253 260 335 349 354 342 322 316 287 272 265 292 315 304 266 215 228 156 141 121 138
301 292 236 209 211 239 239 245 355 273 231 236 258 257 171 157 192 208 238 226 224 132 234 251 337 333 328 333 336 329 306 256 260 292 311 280 183 154 139 134 135 142 137 143
250 237 238 229 213 238 237 297 332 338 331 327 311 265 187 197 186 211 253 211 164 217 268 275 284 314 318 330 321 324 308 248 273 265 3 306 200 167 163 149 161 158 158 159
255 252 249 234 257 278 321 335 317 341 333 325 309 303 197 206 237 191 285 161 279 92 220 284 322 332 346 331 326 329 341 198 113 101 70 127 134 137 131 141 153 158 157 161
239 239 250 285 273 280 283 341 341 343 333 346 311 322 289 235 257 57 301 334 356 46 23 353 342 343 337 340 343 336 343 86 104 107 116 117 99 116 133 137 147 153 157 164
233 245 252 261 295 330 298 332 357 334 322 324 322 287 307 303 38 27 263 51 8 24 43 3 4 359 3 357 5 8 4 73 142 119 123 127 147 140 139 140 145 151 158 161